Weather Roundup
Issued by NWS Springfield, MO

Home | Current Version | Previous Version | Text Only | Print | Product List | Glossary On
Versions: 1 2 3 4 5 6 7 8 9 10 11 12 13 14 15 16 17 18 19 20 21 22 23 24 25 26 27 28 29 30 31 32 33 34 35 36 37 38 39 40 41 42 43 44 45 46 47 48 49 50
000
NZUS99 KSGF 271457
HRRSGF

HOURLY WEATHER
NATIONAL WEATHER SERVICE SPRINGFIELD MO
1000 AM CDT SAT MAY 27 2017

......SGF CWA......

CITY           SKY/WX    TMP DP  RH WIND       PRES   REMARKS
SPRINGFIELD    PTSUNNY   77  71  82 S9        29.87R
JOPLIN         CLOUDY    79  75  87 SW6       29.85R
WEST PLAINS    SUNNY     77  67  71 SW5       29.91R
ROLLA          PTSUNNY   75  69  81 E13       29.87S

......SURROUNDING SGF CWA......

CITY           SKY/WX    TMP DP  RH WIND       PRES   REMARKS
CHANUTE        CLOUDY    74  68  81 E5        29.82S
PARSONS        SUNNY     80  72  76 N5        29.81F
COFFEYVILLE    PTSUNNY   79  75  87 E5        29.80F
EMPORIA        CLOUDY    68  60  75 N10       29.90R
HARRISON AR    MOSUNNY   81  73  76 S10       29.88S

......KANSAS AND MISSOURI......

CITY           SKY/WX    TMP DP  RH WIND       PRES   REMARKS
KANSAS CTY INT CLOUDY    63  59  87 E9        29.87F
SEDALIA        PTSUNNY   78  72  81 NE10      29.90R
ST JOSEPH      LGT RAIN  62  61  96 CALM      29.85F
ST LOUIS       MOSUNNY   78  63  59 E6        29.88S
WICHITA        PTSUNNY   70  57  63 NE22G32   29.84R
TOPEKA         CLOUDY    64  61  90 E5        29.91R
OLATHE         MOSUNNY   68  61  78 NE13      29.88F

......TENNESSEE......

CITY           SKY/WX    TMP DP  RH WIND       PRES   REMARKS
MEMPHIS        NOT AVBL
NASHVILLE      CLOUDY    74  66  76 S6        29.97S

......ARKANSAS.......

CITY           SKY/WX    TMP DP  RH WIND       PRES   REMARKS
FAYETTEVILLE   CLOUDY    78  74  87 S10       29.86S
FT SMITH       CLOUDY    83  71  67 SW8       29.84F
LITTLE ROCK    CLOUDY    78  74  87 SW12      29.91S

......OKLAHOMA.......

CITY           SKY/WX    TMP DP  RH WIND       PRES   REMARKS
TULSA          CLOUDY    80  74  81 CALM      29.78R
PONCA CITY     CLOUDY    75  69  81 E10       29.77S
MCALESTER      PTSUNNY   83  74  74 S12G26    29.83S
OKLAHOMA CITY  MOSUNNY   82  70  66 S24       29.74F

......IOWA............

CITY           SKY/WX    TMP DP  RH WIND       PRES   REMARKS
DES MOINES     NOT AVBL
QUAD CITIES    CLOUDY    60  57  89 E6        29.92S FOG

......ILLINOIS........

CITY           SKY/WX    TMP DP  RH WIND       PRES   REMARKS
QUINCY         MOSUNNY   68  62  81 E6        29.90R
CHICAGO        MOSUNNY   65  53  65 E5        29.92S




USA.gov is the U.S. government's official web portal to all federal, state and local government web resources and services.